Showing default

PANDORA, 67395

Orbit data source: Space-Track

PANDORA, 67395 is a payload satellite owned by GSFC (US) in SSO that was launched on Sun, 11 Jan 2026 UTC via an FALCON 9 launch vehicle from the Air Force Western Test Range (AFWTR). Payload-class satellites include a variety of spacecraft equipped with specific instruments for various scientific and technological missions. These include communications satellites like Starlink; space stations such as the ISS; scientific satellites like the Hubble; Earth observation satellites from companies like Planet Labs, Umbra, and HawkEye 360; GPS; miniature CubeSats for education and research; and military/defense satellites.

Loading next visibility...
Identifier
67395, 2026-004AJ
Orbit
SSO
Country
Flag of USUS
Related business
Manufacturer
BLCAN/LLNL
Mission
Operational Civil Astronomy
Bus & Motor
SATURN, Unknown motor
Mass
300 kg wet, 300 kg dry
Launch date (UTC)
2026-01-11 (8 months ago)
Launch vehicle
FALCON 9
Launch site
Air Force Western Test Range (AFWTR)
Object type
Payload
Rocket body
Debris
Shape & HBR
Box + Cyl + 1 Pan, 2.0 m
Radar Cross Section
2.532 m², Large (>1 m²)

Expand to show TLE details & history
Last TLE update: 16 hours ago

TLE from 16 hours ago
0 PANDORA
1 67395U 26004AJ  26264.25492161  .00000412  00000-0  50613-4 0  9998
2 67395  97.8111 261.4608 0005629 157.0731 203.0738 14.88205800 37562
Epoch: 2026-09-21T06:07Z
TLE epoch observation values (Epoch: 2026-09-21T06:07:05.227Z)
Latitude
Longitude
169.55164°
Altitude
610.194 km
Speed
7.552 km/s
True Right ascension
17h 25m 50s
True Declination
0° 00' 00"
Sunlit
Object was in daylight at epoch
Visualization orbit readout
Latitude
Unknown
Longitude
Unknown
Altitude
Unknown
Speed
Unknown
Apparent Right ascension
Unknown
Apparent Declination
Unknown
Sunlit
N/A
Visualization observer readout
Local Sidereal Time
15:39:13
Azimuth
Unknown
Elevation
Unknown
Doppler factor
Unknown
Orbital elements
Apogee altitude
604.496 km
Perigee altitude
596.639 km
Semi-major axis
6,978.704 km
Eccentricity
0.00056
Inclination
97.8111°
RAAN
261.4608°
Arg. of periapsis
157.0731°
True anomaly
203.04854°
Mean anomaly
203.0738°
Eccentric anomaly
203.06117°
Mean motion
3.7229 °/min
Orbital period
96.7 mins
BSTAR
0.000050613
Loading maneuver chart data...
Computing Atmospheric mass density...
Loading historical data...
Loading historical data...
Loading historical data...
Loading historical data...
Loading historical data...
Loading historical data...
Loading historical data...

Documentation

Showing up to 5 results
|